Date,TemperatureHighF,TemperatureAvgF,TemperatureLowF,DewpointHighF,DewpointAvgF,DewpointLowF,HumidityHigh,HumidityAvg,HumidityLow,PressureMaxIn,PressureMinIn,WindSpeedMaxMPH,WindSpeedAvgMPH,GustSpeedMaxMPH,PrecipitationSumIn
2013-1-1,42.8,39.1,34.7,40.7,35.8,27.8,95,88,71,30.42,30.25,8,1,11,0.30
2013-1-2,41.2,38.1,33.8,39.9,33.4,27.7,95,84,71,30.45,30.27,6,1,9,0.11
2013-1-3,46.8,34.1,22.8,29.8,25.8,18.9,85,72,44,30.59,30.43,8,1,11,0.00
2013-1-4,41.0,26.9,17.2,28.4,18.4,12.2,88,72,48,30.67,30.58,11,1,17,0.00
2013-1-5,51.6,31.9,16.9,30.8,20.8,11.4,87,67,28,30.69,30.50,5,1,8,0.02
2013-1-6,43.3,37.5,33.8,35.8,32.4,29.8,91,82,67,30.55,30.40,9,2,13,0.02
2013-1-7,54.7,35.8,25.3,30.2,24.5,20.0,85,65,32,30.71,30.54,7,2,10,0.00
2013-1-8,61.0,35.5,20.1,32.0,23.9,16.2,88,69,23,30.70,30.59,5,1,7,0.00
2013-1-9,52.0,41.4,29.1,46.5,37.4,26.0,98,86,62,30.78,30.61,6,1,8,0.02
2013-1-10,64.0,52.8,41.2,50.4,45.5,36.9,99,78,51,30.78,30.57,9,2,11,0.01
2013-1-11,65.5,54.7,46.9,58.7,50.6,43.8,99,87,66,30.57,30.39,8,1,11,0.09
2013-1-12,75.2,58.7,49.1,66.3,55.6,48.8,99,91,60,30.49,30.35,7,1,9,0.02
2013-1-13,76.5,56.6,43.2,58.1,50.7,42.6,99,84,47,30.42,30.29,6,1,10,0.14
2013-1-14,58.8,36.6,0.0,58.0,52.4,45.9,99,64,87,30.52,29.77,3,0,5,0.12
2013-1-15,0.0,0.0,0.0,47.0,47.0,47.0,0,0,100,30.18,29.94,0,0,0,0.12
2013-1-16,52.5,17.2,0.0,50.1,46.6,42.8,96,33,90,30.21,29.88,5,0,8,5.73
2013-1-17,45.0,38.1,0.0,43.6,35.4,25.7,96,89,78,30.41,30.10,8,2,13,0.43
2013-1-18,48.4,29.2,20.1,29.8,23.3,17.2,90,80,43,30.63,30.41,4,0,5,0.14
2013-1-19,52.0,31.1,17.8,38.0,23.8,13.0,92,76,42,30.54,30.28,5,1,7,0.01
2013-1-20,52.5,33.9,21.7,37.7,26.1,18.5,95,76,43,30.31,30.22,11,2,15,0.00
2013-1-21,46.6,32.2,21.6,31.5,16.7,0.7,91,59,25,30.25,30.14,17,4,29,0.00
2013-1-22,32.0,24.3,18.3,2.9,-4.2,-10.0,37,28,22,30.39,30.23,14,5,21,0.00
2013-1-23,41.4,27.3,17.1,18.5,6.4,-7.7,76,43,27,30.45,30.20,11,3,15,0.00
2013-1-24,36.9,28.1,19.8,25.9,7.3,-6.6,77,43,22,30.55,30.17,16,4,24,0.00
2013-1-25,32.4,27.2,21.2,30.3,17.4,0.3,92,69,38,30.49,30.20,8,2,11,0.00
2013-1-26,37.9,32.3,25.2,31.4,27.4,21.6,93,83,64,30.49,30.25,6,0,9,0.07
2013-1-27,51.6,33.7,19.6,33.4,26.0,16.1,87,74,48,30.55,30.44,6,0,8,0.02
2013-1-28,62.6,47.2,35.1,47.1,38.0,29.6,96,72,45,30.50,30.33,10,2,13,0.14
2013-1-29,77.4,53.8,40.5,57.6,47.0,40.2,99,82,37,30.37,30.08,8,1,11,0.00
2013-1-30,68.9,58.2,44.2,59.3,52.5,39.2,97,83,60,30.08,29.65,21,3,29,1.75
2013-1-31,44.1,34.6,30.7,39.2,22.0,14.6,86,61,42,30.12,29.70,22,7,30,0.04
2013-2-1,37.8,24.2,13.8,28.8,7.8,-1.9,85,50,30,30.47,30.03,21,5,29,0.00
2013-2-2,31.3,22.9,13.6,26.6,15.5,5.8,90,73,44,30.46,30.16,11,1,17,0.00
2013-2-3,37.4,32.3,28.2,30.9,26.5,16.9,91,79,62,30.25,30.05,14,3,19,0.11
2013-2-4,44.4,28.9,13.8,25.8,18.0,8.2,82,65,33,30.25,30.08,4,1,7,0.06
2013-2-5,52.5,37.3,28.4,37.3,30.4,25.5,92,77,56,30.14,30.06,7,1,10,0.00
2013-2-6,59.7,36.8,23.5,40.6,26.2,20.3,95,70,27,30.34,30.13,8,1,11,0.00
2013-2-7,54.7,42.9,30.7,39.4,32.1,26.0,85,67,47,30.33,30.08,13,2,16,0.00
2013-2-8,57.0,42.4,35.1,44.9,33.9,22.8,93,73,38,30.37,30.04,12,3,18,0.06
2013-2-9,56.7,36.5,24.3,24.3,19.8,15.7,75,54,22,30.47,30.35,7,1,9,0.00
2013-2-10,64.8,44.3,26.6,42.4,27.2,16.9,98,60,19,30.41,30.15,9,2,14,0.13
2013-2-11,56.7,50.1,36.5,50.5,44.6,31.2,98,82,60,30.24,30.10,14,3,21,0.05
2013-2-12,55.6,41.1,26.8,33.7,27.4,21.2,91,62,29,30.31,30.03,8,1,11,0.00
2013-2-13,48.4,41.8,36.7,43.3,37.2,29.7,95,84,68,30.07,29.78,13,3,21,0.31
2013-2-14,51.4,35.9,28.0,30.4,27.9,24.0,89,74,40,30.19,30.07,8,3,12,0.00
2013-2-15,55.9,36.7,24.6,38.0,29.3,21.1,93,77,40,30.22,30.08,13,2,20,0.09
2013-2-16,37.2,30.5,24.4,29.2,18.7,6.2,91,63,31,30.18,30.05,11,1,17,0.00
2013-2-17,38.5,26.9,18.3,11.0,5.1,0.9,66,40,23,30.35,30.13,15,5,24,0.00
2013-2-18,61.2,35.3,14.9,31.0,18.1,7.2,75,53,27,30.42,30.13,10,2,14,0.00
2013-2-19,50.9,42.0,33.3,40.3,26.3,5.7,92,58,25,30.21,30.02,18,5,27,0.09
2013-2-20,43.0,32.5,21.6,14.6,10.5,4.5,65,42,24,30.32,30.21,13,3,18,0.00
2013-2-21,55.6,35.8,16.7,35.5,15.6,9.5,90,50,21,30.37,30.16,8,2,13,0.15
2013-2-22,61.5,47.7,37.9,44.5,40.9,35.0,97,79,50,30.27,30.13,9,2,17,0.21
2013-2-23,61.2,47.0,39.9,46.0,40.7,37.1,95,80,54,30.17,29.97,6,1,8,0.34
2013-2-24,56.3,42.6,28.2,42.7,28.6,19.0,95,63,26,30.20,30.00,10,2,16,0.00
2013-2-25,61.5,38.6,24.8,31.6,24.3,19.4,81,58,28,30.21,30.06,11,3,16,0.00
2013-2-26,61.2,47.5,38.3,44.1,36.9,26.7,91,67,52,30.07,29.62,16,6,23,0.19
2013-2-27,46.2,40.6,36.9,35.0,32.0,29.2,87,72,56,29.96,29.79,14,6,23,0.02
2013-2-28,38.3,34.9,32.7,29.4,25.1,20.3,82,67,52,30.08,29.89,16,5,24,0.01
2013-3-1,41.0,34.6,32.5,33.5,29.0,26.2,90,80,69,30.07,30.01,10,3,13,0.05
2013-3-2,40.6,32.4,27.1,30.8,23.7,13.7,90,71,49,30.13,30.00,11,2,16,0.12
2013-3-3,34.5,28.4,23.5,18.9,15.1,10.6,72,57,46,30.18,30.09,11,3,14,0.00
2013-3-4,52.5,36.1,20.3,27.1,16.7,11.7,76,48,23,30.29,30.14,8,2,11,0.00
2013-3-5,48.2,41.2,33.6,46.9,35.2,23.3,96,80,49,30.16,29.74,21,3,33,0.96
2013-3-6,33.6,30.4,27.7,28.1,24.5,20.4,87,78,68,30.32,29.87,14,2,15,0.00
2013-3-7,36.3,32.6,30.0,25.6,23.7,21.9,82,70,57,30.44,30.30,8,1,9,0.00
2013-3-8,50.7,36.3,28.0,27.5,23.3,19.6,83,61,34,30.49,30.40,13,2,15,0.00
2013-3-9,70.9,43.8,22.5,35.8,25.2,18.7,88,57,15,30.44,30.30,8,2,10,0.00
2013-3-10,76.3,54.8,34.5,41.9,33.3,28.8,91,51,20,30.33,30.17,11,2,16,0.00
2013-3-11,61.7,53.6,45.3,52.0,45.5,33.9,99,75,50,30.21,29.94,14,3,21,0.44
2013-3-12,51.8,43.6,31.1,49.7,38.5,29.6,99,84,53,30.19,29.94,11,3,16,0.22
2013-3-13,44.2,33.7,25.5,34.2,23.5,12.9,99,70,36,30.37,30.16,16,4,24,0.00
2013-3-14,46.9,36.6,25.5,20.7,16.3,11.2,72,45,27,30.45,30.31,13,3,17,0.00
2013-3-15,62.1,41.6,23.7,39.7,30.1,19.3,96,67,40,30.35,30.04,12,2,17,0.00
2013-3-16,72.0,55.4,37.8,56.9,46.6,37.5,99,77,44,30.05,29.89,17,4,26,0.15
2013-3-17,63.9,53.8,45.3,53.0,50.0,44.3,99,88,65,30.14,30.03,13,3,18,0.07
2013-3-18,62.8,48.7,41.7,51.4,44.5,37.7,99,86,56,30.10,29.92,11,3,18,0.61
2013-3-19,57.9,47.0,35.8,48.8,29.6,7.0,99,57,21,30.23,29.96,17,4,24,0.02
2013-3-20,52.9,38.7,23.0,31.5,17.8,7.4,83,48,24,30.24,29.96,14,4,21,0.00
2013-3-21,40.6,29.6,23.0,18.7,9.4,2.0,58,43,26,30.13,29.99,14,4,20,0.00
2013-3-22,50.4,35.0,14.0,23.6,14.5,8.9,85,46,24,30.19,30.09,8,2,12,0.00
2013-3-23,57.4,43.8,35.2,39.1,31.5,21.7,87,62,49,30.15,29.96,7,1,11,0.00
2013-3-24,53.6,45.8,41.9,46.6,42.3,36.5,99,88,70,30.00,29.56,13,3,17,0.64
2013-3-25,42.8,34.1,30.4,42.4,29.6,25.1,99,83,68,30.05,29.63,22,8,32,0.09
2013-3-26,41.0,33.5,30.0,31.9,28.0,25.5,92,80,63,30.33,30.05,10,4,17,0.01
2013-3-27,44.6,35.9,31.1,30.3,24.8,18.2,94,66,45,30.40,30.31,11,3,15,0.01
2013-3-28,54.5,36.0,21.4,27.8,22.9,17.1,90,64,25,30.43,30.35,10,2,14,0.00
2013-3-29,53.4,38.4,21.7,38.7,27.8,19.8,97,71,28,30.45,30.35,12,3,18,0.00
2013-3-30,62.6,46.0,28.9,43.4,37.6,28.7,99,76,43,30.37,30.15,10,2,15,0.00
2013-3-31,61.0,50.5,44.1,55.9,48.8,40.6,99,94,75,30.15,29.98,11,2,15,0.45
2013-4-1,60.4,49.5,40.6,50.1,41.3,31.7,99,77,41,30.18,30.03,15,4,25,0.01
2013-4-2,55.6,41.5,27.9,32.5,23.4,16.2,90,54,23,30.33,30.17,11,2,18,0.00
2013-4-3,58.5,41.7,24.8,27.3,19.5,14.6,78,45,21,30.42,30.31,10,2,14,0.00
2013-4-4,44.6,39.8,36.1,37.2,27.2,13.1,98,67,30,30.37,30.10,11,4,14,0.71
2013-4-5,61.3,44.8,37.0,44.1,39.7,35.7,99,85,47,30.22,30.09,8,2,13,0.05
2013-4-6,73.8,51.4,29.7,46.5,34.5,27.0,99,62,20,30.34,30.20,8,2,11,0.00
2013-4-7,74.7,56.2,38.1,46.8,41.7,36.7,96,63,32,30.31,30.19,15,3,25,0.00
2013-4-8,79.9,59.5,41.9,53.5,48.2,41.6,99,71,37,30.27,30.16,16,2,22,0.00
2013-4-9,86.2,64.0,44.1,57.9,52.1,43.5,99,71,35,30.34,30.20,11,2,15,0.00
2013-4-10,86.4,62.2,49.5,60.4,54.7,49.2,99,81,36,30.27,30.07,8,2,14,0.00
2013-4-11,84.6,66.7,52.3,62.8,55.4,49.3,99,73,33,30.09,29.85,10,2,14,0.01
2013-4-12,65.5,57.6,43.0,62.8,52.1,41.9,99,85,46,30.08,29.76,15,4,20,0.00
2013-4-13,70.3,52.1,35.1,46.9,38.4,31.2,99,67,25,30.21,30.08,14,3,19,0.00
2013-4-14,79.2,53.8,35.6,52.3,40.5,34.8,99,69,23,30.23,30.11,11,2,16,0.01
2013-4-15,75.6,59.1,53.1,58.4,53.6,51.1,98,84,51,30.29,30.11,8,2,12,0.02
2013-4-16,85.3,65.6,46.2,60.1,54.5,45.2,99,72,39,30.41,30.28,9,2,13,0.00
2013-4-17,69.3,61.5,54.9,64.6,59.5,54.0,99,94,73,30.46,30.25,14,2,21,0.65
2013-4-18,83.3,66.5,50.5,67.6,55.4,50.3,99,73,35,30.25,30.04,13,2,22,0.01
2013-4-19,73.2,60.3,45.1,63.3,53.8,34.5,99,80,62,30.17,29.85,12,4,21,0.35
2013-4-20,63.5,47.3,31.5,38.1,32.4,23.5,97,60,26,30.43,30.17,11,3,16,0.00
2013-4-21,67.8,49.8,33.1,39.3,32.9,27.3,99,59,26,30.55,30.41,10,2,14,0.00
2013-4-22,69.3,52.7,38.3,42.7,38.2,29.6,96,62,26,30.51,30.31,16,3,21,0.00
2013-4-23,77.7,56.5,36.5,46.7,38.6,25.8,90,56,23,30.38,30.17,8,1,11,0.00
2013-4-24,75.7,57.6,42.6,60.7,50.6,42.3,99,81,44,30.34,30.10,19,2,25,0.28
2013-4-25,68.7,50.9,35.1,43.9,36.9,26.2,99,63,25,30.47,30.33,10,2,12,0.00
2013-4-26,72.7,52.8,31.8,43.8,34.7,21.8,99,60,16,30.56,30.43,7,1,10,0.00
2013-4-27,64.8,55.7,50.9,55.6,50.0,41.2,98,82,62,30.49,30.31,5,1,7,0.05
2013-4-28,59.9,53.9,50.4,56.2,52.8,50.1,99,96,83,30.31,30.09,8,1,11,0.56
2013-4-29,77.2,60.2,49.5,58.3,53.2,49.0,99,81,44,30.19,30.11,10,1,13,0.00
2013-4-30,85.5,64.0,46.0,60.3,53.8,45.2,99,74,35,30.29,30.14,6,1,12,0.00
2013-5-1,77.5,63.4,50.2,56.3,52.7,49.5,99,71,43,30.41,30.29,13,3,17,0.00
2013-5-2,78.3,64.1,52.2,56.8,53.2,50.0,96,70,44,30.41,30.33,11,2,17,0.00
2013-5-3,72.7,61.5,48.2,54.2,47.3,31.7,99,64,25,30.36,30.22,11,2,15,0.00
2013-5-4,64.6,57.3,49.1,50.2,43.8,34.6,73,61,50,30.23,30.10,13,4,21,0.00
2013-5-5,62.4,54.5,50.0,53.3,48.7,43.1,97,81,68,30.16,29.97,13,4,17,0.09
2013-5-6,70.9,58.8,48.9,58.5,52.4,44.7,98,82,45,30.07,29.94,11,3,15,0.47
2013-5-7,68.2,54.3,45.1,55.5,50.6,44.3,99,88,64,30.11,30.04,8,1,14,0.19
2013-5-8,68.7,58.3,51.6,59.8,55.5,51.3,99,91,66,30.21,30.07,11,2,15,0.11
2013-5-9,80.1,60.7,50.7,62.3,55.8,50.5,99,86,45,30.29,30.19,11,1,14,0.07
2013-5-10,81.0,63.6,48.9,66.7,58.4,48.7,99,86,52,30.26,30.11,14,1,20,0.07
2013-5-11,75.2,62.6,53.1,64.4,59.7,52.5,99,91,64,30.14,30.00,11,1,25,0.37
2013-5-12,66.4,53.9,39.2,52.8,41.4,31.4,99,68,32,30.25,30.09,11,2,17,0.01
2013-5-13,67.6,49.5,32.5,43.2,33.7,24.6,99,62,23,30.34,30.23,14,2,18,0.00
2013-5-14,77.0,56.7,33.3,55.4,44.0,33.0,99,68,37,30.38,30.17,12,2,17,0.00
2013-5-15,85.6,67.6,49.3,62.0,56.4,49.0,99,72,40,30.29,30.14,11,2,16,0.00
2013-5-16,78.6,61.5,50.5,60.9,57.1,50.3,99,87,53,30.23,30.16,6,1,8,0.00
2013-5-17,87.3,67.5,52.9,64.7,58.9,52.3,99,78,43,30.28,30.18,11,1,23,0.32
2013-5-18,78.1,65.9,57.6,68.7,62.8,57.3,99,91,67,30.28,30.19,6,1,9,0.15
2013-5-19,84.6,65.7,52.3,65.6,62.9,51.8,99,92,36,30.23,29.83,8,1,11,0.15
2013-5-20,86.9,69.2,61.0,69.4,64.0,60.2,99,85,49,30.24,30.11,6,1,9,0.08
2013-5-21,91.6,72.4,58.5,70.2,63.9,58.2,99,78,41,30.18,30.02,14,1,23,0.11
2013-5-22,86.2,68.1,58.3,70.2,63.5,58.0,99,87,51,30.10,30.00,13,2,17,1.06
2013-5-23,80.2,66.2,59.5,68.4,61.9,57.7,99,88,52,30.07,29.96,8,1,15,0.73
2013-5-24,68.4,57.6,43.5,58.2,47.7,37.8,99,73,35,30.34,30.06,13,3,17,0.02
2013-5-25,76.3,56.9,37.2,49.7,42.2,31.4,99,65,22,30.43,30.29,8,1,12,0.00
2013-5-26,77.7,62.7,52.5,56.3,49.7,43.4,98,66,37,30.37,30.26,8,1,12,0.00
2013-5-27,85.8,67.6,48.6,63.2,56.3,48.3,99,72,42,30.33,30.18,9,1,12,0.04
2013-5-28,90.0,72.1,55.0,67.0,60.9,54.2,99,72,38,30.30,30.18,13,1,16,0.01
2013-5-29,92.7,71.4,55.6,67.6,61.5,55.3,99,75,36,30.33,30.21,4,1,8,0.01
2013-5-30,93.7,74.1,55.2,68.2,60.7,54.4,99,68,35,30.35,30.21,5,1,11,0.00
2013-5-31,90.5,74.2,56.5,66.3,61.4,56.0,99,69,36,30.30,30.17,9,2,13,0.00
2013-6-1,91.4,76.1,59.4,68.7,63.1,59.1,99,68,36,30.21,30.06,8,2,16,0.01
2013-6-2,74.8,68.6,64.4,70.0,66.3,61.7,99,93,65,30.12,30.01,8,1,10,0.64
2013-6-3,81.9,70.7,61.2,70.0,64.4,60.4,99,82,57,30.12,30.00,8,2,11,0.04
2013-6-4,90.3,70.8,55.6,64.8,60.1,55.1,99,73,41,30.17,30.10,8,1,11,0.00
2013-6-5,93.6,72.6,57.7,68.0,63.6,57.5,99,77,41,30.19,30.03,8,1,10,0.12
2013-6-6,87.1,72.7,64.2,70.7,66.4,63.4,99,83,52,30.09,29.89,7,1,12,0.01
2013-6-7,79.7,70.8,63.3,70.6,66.3,62.0,99,87,61,29.98,29.83,11,1,14,0.28
2013-6-8,86.0,71.0,59.5,67.2,63.3,59.3,99,79,46,30.20,29.98,8,1,12,0.08
2013-6-9,89.2,71.3,58.8,69.9,64.3,58.6,99,82,43,30.26,30.12,8,1,11,0.20
2013-6-10,80.6,71.3,64.6,71.8,66.6,61.8,99,86,55,30.14,30.00,12,2,18,0.20
2013-6-11,84.7,71.6,60.6,67.1,63.9,60.2,99,79,50,30.15,30.03,13,2,17,0.18
2013-6-12,92.5,77.6,61.5,77.1,70.0,61.0,99,79,53,30.16,30.04,7,2,11,0.00
2013-6-13,84.6,72.5,65.5,74.5,69.0,58.8,99,89,69,30.05,29.86,16,2,23,0.26
2013-6-14,82.2,67.4,52.7,62.9,56.9,52.2,99,73,41,30.19,29.99,11,2,14,0.02
2013-6-15,87.3,69.6,51.6,63.5,58.3,51.3,99,72,41,30.27,30.16,9,1,11,0.00
2013-6-16,85.8,72.1,58.3,69.4,64.2,58.0,99,79,52,30.25,30.12,10,1,17,0.00
2013-6-17,87.3,73.7,63.9,71.8,68.0,63.0,99,83,57,30.18,30.06,11,1,16,0.15
2013-6-18,77.2,68.9,61.9,69.4,66.4,61.3,99,92,66,30.09,29.98,10,1,13,0.89
2013-6-19,87.8,69.9,59.2,69.3,63.0,58.9,99,82,46,30.22,30.07,6,1,8,0.00
2013-6-20,90.9,73.4,57.7,68.5,63.9,57.5,99,76,42,30.32,30.22,6,1,10,0.00
2013-6-21,91.4,74.8,60.6,68.9,64.7,60.2,99,74,42,31.83,30.26,8,1,115,0.01
2013-6-22,92.3,74.4,58.5,66.4,60.5,53.6,99,68,31,30.36,30.21,8,1,12,0.00
2013-6-23,92.7,75.4,58.8,68.3,63.5,58.6,99,71,38,30.34,30.22,7,1,9,0.00
2013-6-24,91.2,76.0,62.6,72.1,66.8,61.8,99,76,46,30.34,30.21,8,1,13,0.00
2013-6-25,86.7,73.9,63.9,72.3,67.8,63.0,99,83,56,30.28,30.15,9,1,14,0.01
2013-6-26,88.3,72.9,63.9,74.5,68.5,63.0,99,87,57,30.17,30.04,8,1,14,0.09
2013-6-27,84.6,70.8,64.8,73.9,68.1,63.8,99,92,67,30.08,29.91,10,1,20,1.30
2013-6-28,87.1,73.8,65.1,73.1,69.1,64.6,98,86,60,29.95,29.79,13,2,20,0.08
2013-6-29,85.8,73.1,61.7,67.5,64.0,59.4,99,77,45,29.86,29.79,11,2,15,0.01
2013-6-30,90.0,74.2,59.0,67.5,63.2,58.6,99,73,39,29.96,29.84,9,1,11,0.35
2013-7-1,90.3,74.0,64.8,70.5,66.2,63.0,99,80,42,30.07,29.92,15,1,18,0.17
2013-7-2,91.8,72.9,64.2,71.8,66.9,63.4,99,84,44,30.22,30.04,13,1,21,0.25
2013-7-3,74.5,67.7,63.0,70.7,66.5,61.9,99,96,86,30.33,30.20,6,1,8,1.33
2013-7-4,88.5,72.7,62.8,71.9,66.7,61.9,99,83,52,30.32,30.24,8,1,14,0.25
2013-7-5,90.0,75.3,64.9,71.6,67.7,64.2,99,79,50,30.33,30.25,8,1,11,0.01
2013-7-6,90.0,77.2,66.9,73.0,67.3,64.6,98,74,48,30.31,30.20,8,1,14,0.13
2013-7-7,82.2,72.0,66.0,71.8,67.6,64.8,97,86,68,30.30,30.22,11,1,17,0.04
2013-7-8,90.7,74.7,64.8,69.7,65.6,57.9,98,77,37,30.34,30.24,6,1,10,0.01
2013-7-9,92.5,76.4,63.3,71.1,67.1,62.2,98,76,44,30.30,30.18,5,1,8,0.00
2013-7-10,70.5,69.6,69.1,68.1,67.7,67.1,95,94,90,30.23,30.18,2,0,2,0.00
2013-7-11,85.8,74.1,66.6,70.8,68.3,65.1,96,83,61,30.12,30.01,4,1,5,0.02
2013-7-12,86.2,76.9,62.8,71.0,63.1,59.6,98,64,45,30.13,30.05,11,2,16,0.00
2013-7-13,88.5,74.9,62.2,65.3,62.7,59.6,93,68,44,30.24,30.12,8,2,12,0.00
2013-7-14,89.4,77.3,68.0,73.4,66.6,63.3,95,71,46,30.39,30.22,10,2,17,0.08
2013-7-15,93.9,77.6,63.9,68.3,65.0,62.1,96,69,40,30.45,30.36,7,1,9,0.00
2013-7-16,96.1,78.9,61.5,69.9,65.7,60.1,97,68,39,30.47,30.37,7,1,9,0.00
2013-7-17,93.4,75.9,66.7,72.9,68.4,65.3,95,80,48,30.44,30.28,9,1,14,2.03
2013-7-18,95.4,74.5,66.4,73.1,67.7,60.8,95,82,45,30.35,30.20,16,1,30,0.39
2013-7-19,92.5,76.8,64.4,72.2,68.1,63.3,96,77,50,30.26,30.11,8,1,13,0.04
2013-7-20,89.2,77.2,66.9,71.9,68.1,64.9,94,75,52,30.18,30.06,7,1,9,0.01
2013-7-21,84.7,84.7,84.7,69.9,69.9,69.9,61,61,61,30.07,30.07,0,0,2,0.01
2013-7-22,84.7,84.7,84.7,69.9,69.9,69.9,61,61,61,30.07,30.07,0,0,2,0.01
2013-7-23,84.7,84.7,84.7,69.9,69.9,69.9,61,61,61,30.07,30.07,0,0,2,0.01
2013-7-24,89.4,79.4,68.9,69.9,64.3,54.7,89,61,36,30.15,29.95,8,2,11,0.01
2013-7-25,86.7,73.4,61.9,64.6,59.2,54.6,90,63,38,30.31,30.14,10,1,11,0.02
2013-7-26,90.5,73.5,56.1,64.4,59.8,53.5,92,65,40,30.33,30.23,12,1,18,0.00
2013-7-27,85.6,72.5,66.9,68.7,64.4,60.8,90,77,50,30.27,30.14,6,1,10,0.07
2013-7-28,85.5,72.4,60.3,68.5,61.6,56.0,93,72,44,30.30,30.16,9,1,14,0.11
2013-7-29,85.1,68.7,53.6,60.0,55.4,51.0,92,66,37,30.45,30.30,6,1,10,0.00
2013-7-30,84.9,69.6,54.7,62.6,57.9,52.4,93,69,43,30.47,30.38,7,1,11,0.00
2013-7-31,72.0,67.2,64.2,65.0,62.7,59.9,91,86,76,30.42,30.23,5,1,7,0.38
2013-8-1,88.0,74.5,65.3,67.8,64.7,61.3,92,74,47,30.24,30.17,8,1,11,0.02
2013-8-2,87.6,72.5,61.0,66.9,61.1,56.5,93,71,38,30.31,30.23,5,1,8,0.00
2013-8-3,86.4,73.1,61.7,66.6,62.9,58.1,92,73,49,30.29,30.22,9,1,13,0.00
2013-8-4,87.3,75.1,64.8,70.2,62.6,56.7,91,67,41,30.32,30.23,8,1,10,0.02
2013-8-5,87.8,72.3,58.6,63.8,59.5,55.8,92,67,40,30.32,30.22,10,1,13,0.00
2013-8-6,88.5,74.2,62.4,66.8,62.9,57.7,89,70,45,30.29,30.20,5,1,8,0.00
2013-8-7,87.3,73.1,67.8,69.7,66.5,63.9,91,81,54,30.30,30.23,14,1,19,0.80
2013-8-8,86.2,74.5,66.9,70.4,67.5,64.7,93,80,58,30.29,30.24,5,0,9,0.02
2013-8-9,89.1,75.3,67.8,72.0,68.1,63.1,93,80,53,30.33,30.24,10,1,18,0.51
2013-8-10,89.1,74.0,67.8,72.5,67.9,64.7,92,82,52,30.38,30.31,9,1,14,0.47
2013-8-11,87.8,74.1,66.9,70.9,67.3,64.5,93,80,54,30.41,30.31,8,1,11,0.02
2013-8-12,87.1,75.3,67.8,71.1,67.6,64.7,91,78,55,30.36,30.23,7,1,11,0.15
2013-8-13,84.0,71.5,64.9,70.5,66.3,61.8,93,84,61,31.68,30.11,11,1,14,0.81
2013-8-14,77.4,66.9,55.6,62.8,56.2,51.6,91,70,44,30.34,30.18,9,2,11,0.00
2013-8-15,58.6,56.7,55.4,52.3,51.3,50.1,88,82,74,30.34,30.31,6,2,8,0.00
2013-8-16,86.7,70.6,54.9,63.8,58.7,53.2,94,69,40,30.36,30.28,8,1,11,0.00
2013-8-17,79.3,67.6,58.5,62.8,57.7,53.4,89,72,52,30.41,30.33,8,2,11,0.01
2013-8-18,84.4,70.9,63.3,66.2,61.8,58.8,90,74,52,30.43,30.35,7,2,9,0.13
2013-8-19,87.8,71.9,65.3,66.8,64.3,62.6,94,79,47,30.41,30.31,4,0,7,0.06
2013-8-20,81.9,75.0,64.8,71.3,65.8,63.0,95,74,62,30.41,30.33,2,0,4,0.00
2013-8-21,80.2,80.2,80.2,66.5,66.5,66.5,63,63,63,30.41,30.41,1,1,2,0.00
2013-8-22,80.2,80.2,80.2,66.5,66.5,66.5,63,63,63,30.41,30.41,1,1,2,0.00
2013-8-23,84.6,66.9,52.3,64.5,58.8,51.8,98,79,36,30.13,29.74,8,1,11,0.00
2013-8-24,87.4,71.7,60.3,64.3,59.9,55.6,94,70,37,30.32,30.13,8,2,12,0.01
2013-8-25,87.6,68.3,52.3,61.5,55.8,50.3,96,69,33,30.40,30.28,5,1,8,0.00
2013-8-26,86.7,69.2,53.8,65.9,59.6,52.1,95,75,46,30.35,30.17,6,1,8,0.00
2013-8-27,86.9,71.4,60.6,69.1,64.2,58.5,94,79,55,30.19,30.07,5,1,8,0.00
2013-8-28,90.0,75.3,65.8,71.6,66.8,64.1,95,77,48,30.11,30.00,8,1,14,0.00
2013-8-29,94.8,78.2,68.0,71.3,67.3,64.5,89,71,44,30.05,29.98,8,1,11,0.00
2013-8-30,92.5,76.0,64.0,73.5,66.0,62.0,95,74,43,30.07,29.96,7,1,11,0.00
2013-8-31,87.3,73.0,67.1,73.3,67.9,63.5,93,85,59,30.01,29.92,14,1,18,0.33
2013-9-1,86.7,71.7,66.6,70.7,66.8,62.9,94,85,56,29.98,29.87,12,1,15,0.35
2013-9-2,87.8,74.2,66.2,69.9,67.4,64.4,94,81,54,29.99,29.88,5,1,10,0.00
2013-9-3,85.5,70.8,60.1,68.4,63.5,57.9,94,79,50,30.07,29.88,8,1,11,0.05
2013-9-4,88.0,68.3,54.1,65.5,58.2,53.0,97,74,34,30.17,30.06,5,1,8,0.00
2013-9-5,87.1,67.4,52.7,63.6,57.9,51.8,97,75,41,30.20,30.14,5,1,8,0.00
2013-9-6,87.3,69.1,55.0,65.7,59.6,53.7,97,75,43,30.23,30.11,7,1,9,0.00
2013-9-7,88.0,69.4,55.6,66.8,60.5,54.5,97,76,45,30.16,30.03,8,1,11,0.00
2013-9-8,88.3,71.5,59.5,68.6,63.7,58.1,96,78,49,30.07,30.00,4,0,8,0.00
2013-9-9,93.9,74.2,60.6,69.7,64.3,59.3,96,75,42,30.18,30.06,5,1,9,0.00
2013-9-10,93.4,76.0,63.1,71.2,65.3,61.0,96,73,42,30.27,30.16,5,1,7,0.00
2013-9-11,70.5,70.2,69.6,66.5,66.0,65.6,89,87,86,30.25,30.22,2,0,2,0.00
2013-9-12,88.3,71.1,64.6,69.7,65.7,61.1,96,85,54,30.14,29.94,6,1,9,0.33
2013-9-13,78.3,67.4,53.8,67.2,56.9,47.6,95,72,37,30.02,29.92,11,2,15,0.01
2013-9-14,79.2,59.1,45.1,55.3,48.5,44.3,99,73,32,30.13,30.01,8,1,12,0.00
2013-9-15,84.4,64.1,46.8,61.5,54.6,46.5,99,76,41,30.22,30.12,5,1,9,0.00
2013-9-16,80.8,65.3,54.7,65.6,58.5,53.3,97,80,54,30.23,30.15,6,1,8,0.00
2013-9-17,81.1,64.8,54.3,59.6,55.0,50.7,92,72,46,30.28,30.19,9,2,13,0.00
2013-9-18,74.1,61.4,52.9,60.7,56.4,50.6,94,85,55,30.25,30.17,4,0,7,0.17
2013-9-19,79.5,67.1,61.5,66.9,62.6,59.6,95,86,66,30.21,30.10,6,1,11,0.01
2013-9-20,86.4,70.3,60.8,71.0,63.1,59.4,97,80,49,30.12,29.94,8,1,12,0.00
2013-9-21,68.5,64.1,60.8,66.7,61.8,55.9,97,92,84,29.94,29.79,7,0,10,0.65
2013-9-22,77.9,61.1,49.8,60.3,53.5,49.2,99,79,46,29.98,29.84,9,1,11,0.01
2013-9-23,81.9,61.1,45.3,61.6,53.4,44.5,99,79,46,30.05,29.97,9,1,14,0.01
2013-9-24,82.2,63.3,50.9,63.2,55.4,50.2,99,80,43,30.09,29.93,6,1,9,0.00
2013-9-25,71.6,63.6,56.7,64.6,60.1,55.5,97,89,72,29.95,29.88,4,0,5,0.08
2013-9-26,80.4,65.3,54.7,64.2,57.5,52.9,97,79,44,30.08,29.92,7,1,9,0.13
2013-9-27,82.2,62.5,49.1,62.1,54.5,48.8,99,79,41,30.18,30.07,7,1,8,0.01
2013-9-28,82.2,61.1,48.2,62.2,53.8,47.8,99,80,44,30.25,30.13,5,1,8,0.00
2013-9-29,80.6,61.6,50.0,60.3,54.8,49.2,98,81,47,30.17,30.04,6,1,9,0.00
2013-9-30,79.3,64.9,55.0,61.6,57.9,53.6,95,80,47,30.11,30.01,5,1,8,0.00
2013-10-1,81.0,63.4,51.6,64.4,56.4,51.0,99,81,47,30.18,30.08,8,1,11,0.00
2013-10-2,84.9,63.4,49.3,65.2,56.7,49.0,99,82,46,30.22,30.10,6,0,8,0.00
2013-10-3,84.9,65.3,54.5,66.0,58.6,53.7,99,82,45,30.18,30.09,4,1,6,0.00
2013-10-4,86.0,61.8,53.6,67.4,58.0,52.8,98,89,44,30.22,30.12,3,0,4,0.00
2013-10-5,89.8,68.5,53.8,68.9,60.1,53.0,98,79,43,30.19,30.04,5,1,8,0.00
2013-10-6,88.3,68.7,54.3,69.1,59.4,53.3,99,76,42,30.07,29.87,8,1,12,0.00
2013-10-7,72.0,60.9,47.3,63.0,53.7,45.2,95,79,51,30.11,29.83,13,2,18,0.35
2013-10-8,72.0,55.1,41.4,52.5,46.7,41.1,99,77,43,30.19,30.10,11,3,15,0.00
2013-10-9,75.6,57.0,43.2,51.2,46.2,40.6,95,71,37,30.24,30.13,9,2,12,0.00
2013-10-10,45.0,43.0,41.2,43.4,42.1,40.5,98,96,95,30.16,30.13,0,0,0,0.00
2013-10-11,80.6,60.5,44.4,57.4,51.2,43.9,99,75,29,30.09,29.99,5,0,8,0.00
2013-10-12,73.8,62.8,55.6,60.9,56.9,52.4,97,82,62,30.14,30.02,5,0,8,0.00
2013-10-13,76.8,66.1,56.1,65.5,60.6,55.6,98,83,63,30.23,30.13,8,1,11,0.00
2013-10-14,80.4,65.3,54.7,62.1,57.6,52.7,96,78,50,30.26,30.13,9,1,12,0.00
2013-10-15,79.3,61.9,49.5,59.1,54.7,48.9,99,80,48,30.19,30.04,5,0,8,0.00
2013-10-16,72.0,61.0,51.6,58.6,55.9,50.7,97,84,61,30.07,29.98,6,0,8,0.00
2013-10-17,66.6,61.0,54.7,63.0,58.0,49.0,96,90,81,30.01,29.86,9,1,14,0.30
2013-10-18,69.8,53.4,39.9,56.0,46.3,39.7,99,80,44,30.07,29.97,7,0,8,0.00
2013-10-19,65.3,54.0,45.1,52.6,48.6,43.0,96,83,57,30.00,29.88,11,2,17,0.00
2013-10-20,69.3,47.0,32.2,49.6,37.2,31.2,99,74,27,30.09,30.00,5,1,8,0.00
2013-10-21,72.5,49.4,32.5,52.6,40.6,31.6,99,77,33,30.12,29.99,8,1,13,0.00
2013-10-22,67.3,53.1,43.5,52.3,47.5,42.2,98,83,56,30.01,29.83,9,1,11,0.00
2013-10-23,56.3,46.5,31.3,48.9,40.1,28.3,95,79,54,30.05,29.76,17,3,24,0.02
2013-10-24,54.5,39.0,26.6,38.9,33.4,24.1,97,82,53,30.18,30.05,10,1,16,0.04
2013-10-25,50.4,36.1,25.2,36.5,28.2,21.5,95,74,47,30.38,30.18,10,1,12,0.01
2013-10-26,58.5,39.1,20.1,36.6,26.4,17.4,92,65,32,30.32,30.06,11,2,16,0.00
2013-10-27,70.2,53.3,36.7,46.9,41.0,32.3,89,65,41,30.12,30.03,10,1,14,0.00
2013-10-28,68.9,55.9,49.3,56.9,51.2,46.7,95,85,59,30.25,30.11,5,0,8,0.04
2013-10-29,75.7,59.8,51.8,55.9,52.1,49.7,95,78,44,30.33,30.23,8,1,12,0.00
2013-10-30,78.6,60.5,52.7,59.3,54.3,49.5,97,82,49,30.27,30.14,10,1,14,0.12
2013-10-31,70.7,62.0,50.5,60.9,53.5,49.7,99,77,52,30.15,29.70,11,2,19,0.01
2013-11-1,75.0,63.6,45.9,60.7,53.2,44.1,94,71,40,29.81,29.67,13,3,22,0.28
2013-11-2,65.1,48.0,37.0,53.8,39.8,35.1,99,77,36,30.04,29.79,15,2,22,0.00
2013-11-3,61.3,41.1,30.2,46.3,33.9,29.2,99,78,41,30.32,30.04,8,1,12,0.00
2013-11-4,66.9,44.6,28.9,38.9,32.5,27.4,96,68,28,30.42,30.31,8,1,13,0.00
2013-11-5,69.6,48.2,36.0,42.2,34.6,31.0,89,63,27,30.45,30.32,8,1,11,0.00
2013-11-6,78.4,54.7,35.2,56.3,45.0,32.1,98,74,39,30.34,30.07,12,1,18,0.00
2013-11-7,57.6,50.2,34.2,54.5,43.1,27.7,95,77,52,30.22,30.01,13,2,20,0.25
2013-11-8,55.9,36.5,24.3,38.0,25.8,21.3,93,70,31,30.33,30.22,11,1,19,0.14
2013-11-9,58.5,38.7,24.3,36.2,27.5,21.4,93,69,33,30.28,30.17,9,1,14,0.00
2013-11-10,66.0,43.8,27.5,43.7,30.6,23.9,97,65,26,30.29,30.16,13,2,20,0.00
2013-11-11,68.2,41.9,23.5,36.6,26.3,20.3,89,61,19,30.30,30.13,7,1,9,0.06
2013-11-12,49.1,35.7,27.1,39.3,26.9,16.2,81,70,57,30.48,30.08,15,3,20,0.05
2013-11-13,47.3,29.7,18.5,22.7,17.1,12.0,83,61,31,30.55,30.40,10,1,14,0.08
2013-11-14,61.7,35.6,16.5,29.4,20.1,12.3,88,60,23,30.43,30.25,8,1,10,0.00
2013-11-15,57.2,39.4,22.5,46.6,31.7,18.0,98,77,32,30.28,27.97,6,0,8,0.17
2013-11-16,75.9,52.1,39.0,55.4,47.2,38.8,99,86,46,30.20,30.09,4,0,7,0.00
2013-11-17,72.9,55.5,42.4,58.8,51.6,42.2,99,88,53,30.12,29.83,11,1,16,0.17
2013-11-18,65.8,55.7,38.7,59.5,42.9,27.3,99,66,31,30.10,29.83,12,2,21,0.11
2013-11-19,56.7,41.4,28.6,32.1,27.5,23.4,85,59,32,30.21,30.10,10,1,14,0.00
2013-11-20,61.7,42.0,29.7,31.2,27.6,24.6,84,60,26,30.32,30.18,9,2,14,0.00
2013-11-21,73.2,50.0,30.7,51.3,40.4,25.9,94,72,42,30.38,30.25,10,2,14,0.00
2013-11-22,61.0,53.6,48.4,53.8,51.1,46.0,97,91,74,30.30,30.15,7,0,11,0.24
2013-11-23,54.9,45.3,29.8,53.0,33.7,10.2,97,66,24,30.30,30.15,13,2,17,0.01
2013-11-24,36.9,26.2,18.5,15.1,6.8,-3.2,63,45,24,30.50,30.29,13,2,20,0.00
2013-11-25,42.4,30.6,18.0,29.0,13.3,5.6,84,50,27,30.42,30.15,8,0,11,0.02
2013-11-26,47.1,41.1,33.3,46.1,39.6,28.7,98,94,83,30.16,29.68,10,1,12,1.62
2013-11-27,38.7,30.4,24.3,36.5,23.2,11.8,93,75,55,30.21,29.70,11,1,17,0.05
2013-11-28,44.8,26.1,14.0,24.2,15.9,8.2,86,67,38,30.42,30.20,5,0,7,0.12
2013-11-29,53.1,29.8,15.8,31.0,20.5,11.3,88,72,35,30.52,30.41,4,0,6,0.00
2013-11-30,61.0,35.4,23.0,34.2,25.0,18.9,90,69,30,30.47,30.26,10,1,14,0.00
2013-12-1,58.5,35.6,20.5,36.4,27.8,18.1,93,76,43,30.26,29.98,7,1,10,0.00
2013-12-2,53.8,43.5,35.8,40.5,37.3,31.7,92,79,61,29.99,29.78,4,0,5,0.04
2013-12-3,65.5,48.9,40.1,48.6,42.4,37.6,95,80,53,29.89,29.81,4,0,6,0.00
2013-12-4,73.6,53.3,37.8,53.2,46.1,37.2,99,80,46,30.00,29.87,8,1,11,0.00
2013-12-5,72.9,59.3,46.8,59.2,52.5,45.1,95,80,54,30.05,29.92,6,1,8,0.07
2013-12-6,60.6,53.0,41.2,58.8,50.6,38.8,97,92,83,30.12,29.87,10,1,14,0.60
2013-12-7,41.5,37.3,34.5,39.9,32.7,29.2,94,83,76,30.36,30.10,11,3,14,0.01
2013-12-8,46.4,40.3,36.0,38.9,35.9,30.1,93,84,74,30.30,30.03,13,4,17,0.35
2013-12-9,49.3,44.3,40.5,46.2,42.4,38.5,96,93,87,30.11,29.99,7,1,11,0.26
2013-12-10,43.3,35.8,22.1,42.3,31.1,18.3,97,83,58,30.30,29.92,12,2,17,0.21
2013-12-11,49.5,30.9,16.7,29.8,20.6,12.2,88,69,35,30.38,30.25,7,1,10,0.00
2013-12-12,39.7,25.9,17.4,23.6,15.4,8.4,85,67,30,30.41,27.31,9,1,14,0.00
2013-12-13,51.3,30.2,15.3,25.9,17.5,9.7,82,62,28,30.33,30.14,5,1,8,0.00
2013-12-14,44.8,40.5,36.5,40.9,33.4,21.2,94,77,46,30.17,29.73,8,2,12,0.51
2013-12-15,44.4,36.5,32.2,42.5,30.4,24.5,93,79,69,30.10,29.73,11,4,16,0.01
2013-12-16,50.9,35.0,27.1,32.8,26.9,23.0,87,73,47,30.16,30.03,9,3,15,0.00
2013-12-17,55.4,39.0,25.0,38.4,28.6,16.3,92,68,43,30.11,29.89,17,3,27,0.02
2013-12-18,47.7,32.2,20.5,23.7,18.8,14.3,77,59,33,30.25,30.11,10,2,14,0.00
2013-12-19,61.7,35.1,19.4,32.4,23.1,15.1,84,66,25,30.25,30.09,4,0,4,0.00
2013-12-20,69.3,44.3,28.0,41.0,32.6,23.7,88,68,26,30.15,30.04,4,0,6,0.00
2013-12-21,74.8,59.6,41.5,58.7,49.4,37.5,88,70,54,30.04,29.83,11,2,18,0.00
2013-12-22,72.5,59.1,52.2,58.0,53.8,50.7,96,84,58,30.06,29.83,21,2,30,0.99
2013-12-23,54.0,45.0,33.4,52.9,41.0,25.1,97,86,71,30.25,29.97,10,2,14,0.20
2013-12-24,38.7,30.7,19.4,26.1,19.1,9.2,76,62,39,30.38,30.22,13,2,18,0.00
2013-12-25,45.9,26.5,14.5,22.8,14.1,7.5,85,63,29,30.38,30.23,7,1,11,0.00
2013-12-26,50.9,30.3,19.0,29.1,21.8,14.2,86,73,39,30.32,30.23,10,1,13,0.00
2013-12-27,54.7,30.6,17.6,29.5,20.1,12.8,88,69,28,30.41,30.29,7,1,8,0.00
2013-12-28,49.8,33.5,18.7,39.1,26.3,14.0,94,77,45,30.34,30.01,5,1,7,0.25
2013-12-29,45.5,43.8,40.3,43.9,41.6,37.9,95,92,87,30.01,29.76,11,3,17,0.46
2013-12-30,41.5,38.5,34.3,39.3,33.8,29.4,93,83,76,30.14,29.97,8,2,12,0.01
2013-12-31,43.3,32.5,23.0,29.6,24.6,18.8,89,74,47,30.31,30.11,9,3,17,0.00
2014-1-1,56.5,30.9,18.7,33.4,21.7,13.9,87,72,29,30.28,30.04,6,0,8,0.00
2014-1-2,38.8,31.6,20.8,36.4,27.2,9.0,92,84,62,30.04,29.66,10,2,20,0.21